Regional Weather Roundup
Issued by NWS

Home | Current Version | Previous Version | Text Only | Print | Product List | Glossary On
Versions: 1 2 3 4 5 6 7 8 9 10 11 12 13 14 15 16 17 18 19 20 21 22 23 24 25 26 27 28 29 30 31 32 33 34 35 36 37 38 39 40 41 42 43 44 45 46 47 48 49 50
000
ASCA44 KEWX 061420
RWRMX

LATIN AMERICA AND CARIBBEAN REGIONAL WEATHER ROUNDUP
NATIONAL WEATHER SERVICE AUSTIN/SAN ANTONIO TX
900 AM CDT WED MAY 06 2015

NOTE: "FAIR" INDICATED FEW OR NO CLOUDS BELOW 12,000 FEET WITH NO
SIGNIFICANT WEATHER AND/OR OBSTRUCTIONS TO VISIBILITY.

BAJA CALIFORNIA

CITY           SKY/WX    TMP DP  RH WIND       PRES   REMARKS
MEXICALI       PTSUNNY   63  43  48 N7        29.77
TIJUANA        CLOUDY    59  43  55 CALM      29.93S

NORTHWESTERN MEXICO

CITY           SKY/WX    TMP DP  RH WIND       PRES   REMARKS
CULIACAN       PTSUNNY   70  64  83 CALM      29.88
DURANGO        PTSUNNY   54  39  58 CALM      30.17
GUAYMAS        SUNNY     68  59  73 CALM      29.81
HERMOSILLO     SUNNY     68  57  68 CALM      29.89
CD. JUAREZ     SUNNY     63  39  42 SW5       29.93
OBREGON        SUNNY     68  57  68 E6        29.84

NORTHEASTERN MEXICO

CITY           SKY/WX    TMP DP  RH WIND       PRES   REMARKS
CHIHUAHUA      SUNNY     61  30  31 S5        30.04
MATAMOROS      PTSUNNY   79  73  83 SE12      29.91
MONCLOVA       PTSUNNY   77  66  69 CALM      29.87R
MONTERREY      FOG       72  68  88 E7        29.88R VSB 1
NUEVO LAREDO   CLOUDY    77  70  78 SE8       29.87
PIEDRAS NEGRAS FOG       73  70  88 SE7       29.89R VSB 1
REYNOSA        CLOUDY    75  70  83 SE6       29.87
SALTILLO       PTSUNNY   66  55  68 CALM      30.05R
TORREON        PTSUNNY   70  52  52 CALM      30.00R
CD. VICTORIA   PTSUNNY   75  70  83 S9G22     29.87  FOG

WESTERN MEXICO

CITY           SKY/WX    TMP DP  RH WIND       PRES   REMARKS
AGUASCALIENTES PTSUNNY   61  41  48 S3        30.22
COLIMA         MOSUNNY   75  55  50 CALM      30.01R
DEL BAJIO      PTSUNNY   66  48  52 S2        30.28R
GUADALAJARA    PTSUNNY   68  46  45 CALM      30.16
MANZANILLO     MOSUNNY   72  61  68 N7        29.87R
MAZATLAN       PTSUNNY   64  59  82 NE8       29.87R
P. VALLARTA    CLOUDY    77  68  73 CALM      29.90R
URUAPAN        SUNNY     61  54  77 CALM      30.19R
ZACATECAS        N/A    N/A N/A N/A MISG        N/A

CENTRAL MEXICO

CITY           SKY/WX    TMP DP  RH WIND       PRES   REMARKS
CUERNAVACA     MOSUNNY   75  52  43 CALM      30.12R
MEXICO CITY    SUNNY     63  54  72 E2        30.31R
MORELIA        MOSUNNY   64  48  55 SW6       30.23
POZA RICA      FOG       77  77 100 CALM      29.89R VSB 1
PUEBLA         SUNNY     55  50  82 NW6       30.31R
S. LUIS POTOSI PTSUNNY   61  59  94 CALM      30.18S FOG
TAMPICO        MOSUNNY   79  73  83 SE12      29.88R
TOLUCA         SUNNY     46  43  87 CALM      30.40R

SOUTHERN MEXICO

CITY           SKY/WX    TMP DP  RH WIND       PRES   REMARKS
ACAPULCO       MOSUNNY   82  75  78 CALM      29.88R
B. DE HUATULCO PTSUNNY   81  73  78 CALM      29.90
OAXACA         PTSUNNY   66  59  77 SW2       30.21R HAZE
P. ESCONDIDO   MOSUNNY   81  73  78 E8        30.01R
VERACRUZ       CLOUDY    79  73  83 NW3       29.87R HAZE
ZIHUATANEJO    MOSUNNY   77  72  83 CALM      29.89R

YUCATAN PENINSULA

CITY           SKY/WX    TMP DP  RH WIND       PRES   REMARKS
CAMPECHE       MOSUNNY   81  73  78 E12       29.90R
CANCUN         MOSUNNY   82  73  74 E13       29.98R
CHETUMAL       MOSUNNY   84  75  74 SE12      29.94  HX  92
CD. DEL CARMEN SUNNY     82  72  69 SE16      29.89
COZUMEL        PTSUNNY   81  72  74 SE13      29.97R
MERIDA         MOSUNNY   84  72  65 SE15      29.95R
MINATITLAN     SUNNY     77  70  78 CALM      29.83
TAPACHULA      MOSUNNY   82  77  83 CALM      29.89R HX  91
TUX. GUTIERREZ MOSUNNY   79  66  65 CALM      29.96R
VILLAHERMOSA   MOSUNNY   81  79  94 E8        29.89R

CENTRAL AMERICA

CITY           SKY/WX    TMP DP  RH WIND       PRES   REMARKS
BELIZE CITY    PTSUNNY   84  77  79 E7        29.94R HX  94
MANAGUA        MOSUNNY   84  70  61 E12       29.86S

CARIBBEAN

CITY           SKY/WX    TMP DP  RH WIND       PRES   REMARKS
ARUBA          MOSUNNY   84  73  70 E29       29.94R HX  91
KINGSTON       MOSUNNY   86  70  58 SE23      29.97S HX  90
NASSAU         MOSUNNY   77  68  73 SE6       30.06R
SAN JUAN       MOSUNNY   86  73  66 E16       30.10S HX  93
SANTO DOMINGO  PTSUNNY   86  72  62 SE12      30.06  HX  92
ST. CROIX      MOSUNNY   88  72  58 E20G28    30.09  HX  94
ST. KITTS      MOSUNNY   86  68  54 E17       30.09S
ST. MAARTEN    MOSUNNY   84  70  61 E13       30.09S
ST. THOMAS     MOSUNNY   84  70  61 SE16G26   30.10

$$




USA.gov is the U.S. government's official web portal to all federal, state and local government web resources and services.